Regional Weather Roundup
Issued by NWS Goodland, KS

Home | Current Version | Previous Version | Graphics & Text | Print | Product List | Glossary On
Versions: 1 2 3 4 5 6 7 8 9 10 11 12 13 14 15 16 17 18 19 20 21 22 23 24 25 26 27 28 29 30 31 32 33 34 35 36 37 38 39 40 41 42 43 44 45 46 47 48 49 50
000
ASUS43 KGLD 292208
RWRGLD

GOODLAND FORECAST AREA HOURLY WEATHER ROUNDUP
NATIONAL WEATHER SERVICE GOODLAND KS
400 PM MDT THU SEP 29 2016

...OFFICIAL OBSERVATIONS...

CITY           SKY/WX    TMP DP  RH WIND       PRES   REMARKS
GOODLAND KS    SUNNY     74  42  31 S21G33    30.30F
HILL CITY KS   SUNNY     70  44  39 SE7       30.33F
IMPERIAL NEB   SUNNY     76  40  27 SE16G25   30.29F
MCCOOK NEB     SUNNY     73  43  33 SE14      30.31F
AKRON CO       SUNNY     79  39  23 SE23G33   30.26F
BURLINGTON CO  SUNNY     77  39  25 S22G29    30.30F
LIMON CO       CLOUDY    79  29  16 S18G25    30.29F
$$

...UNOFFICIAL OBSERVATIONS...

CITY           SKY/WX    TMP DP  RH WIND       PRES   REMARKS
COLBY KS       SUNNY     75  45  33 SE12G20   30.32F
LENORA KS        N/A     68  32  26 MISG        N/A
NORTON KS      SUNNY     70  36  28 E9        30.32F
SHARON SPRINGS   N/A     76  46  33 S12G20      N/A
KIT CARSON CO    N/A     78  45  30 MISG        N/A
$$




USA.gov is the U.S. government's official web portal to all federal, state and local government web resources and services.